Regional Weather Roundup
Issued by NWS

Home | Current Version | Previous Version | Text Only | Print | Product List | Glossary On
Versions: 1 2 3 4 5 6 7 8 9 10 11 12 13 14 15 16 17 18 19 20 21 22 23 24 25 26 27 28 29 30 31 32 33 34 35 36 37 38 39 40 41 42 43 44 45 46 47 48 49 50
000
ASUS44 KBMX 052010
RWRAL

ALABAMA REGIONAL WEATHER ROUNDUP
NATIONAL WEATHER SERVICE BIRMINGHAM AL
200 PM CST THU MAR 05 2015

NOTE: "FAIR" INDICATES FEW OR NO CLOUDS BELOW 12,000 FEET
WITH NO SIGNIFICANT WEATHER AND/OR OBSTRUCTIONS TO VISIBILITY.

THE REMARK "TC" DENOTES TEMPERATURE IN DEGREES CELSIUS.

ALZ001>011-014-016>018-020-052100-
NORTH ALABAMA

CITY           SKY/WX    TMP DP  RH WIND       PRES   REMARKS
MUSCLE SHOALS  CLOUDY    27  19  72 N12G18    30.40S WCI  17
HUNTSVILLE     CLOUDY    28  21  75 N12       30.34F WCI  18
DECATUR        CLOUDY    26  22  84 N17       30.36F WCI  13
HALEYVILLE       N/A     24  22  92 N12G20    30.36  WCI  13
GADSDEN        CLOUDY    30  25  80 N16G22    30.26R WCI  19
$$

ALZ012-013-022-023-030>036-040>044-052100-
WEST CENTRAL ALABAMA

CITY           SKY/WX    TMP DP  RH WIND       PRES   REMARKS
TUSCALOOSA     CLOUDY    32  27  81 NW10G20   30.35R WCI  24
$$

ALZ015-024>027-033>036-040>044-052100-
CENTRAL ALABAMA

CITY           SKY/WX    TMP DP  RH WIND       PRES   REMARKS
BIRMINGHAM     CLOUDY    29  25  85 N16G23    30.30R WCI  17
MONTGOMERY     CLOUDY    42  36  79 NW17G25   30.20R
SHELBY CO ARPT MIX PCPN  32  27  81 NW16G26   30.26S WCI  21
MAXWELL AFB    CLOUDY    41  37  87 NW15G23   30.19F
GREENVILLE     CLOUDY    41  36  82 NW13G22   30.18R
$$

ALZ019-021-028-029-037-038-045>048-052100-
EAST CENTRAL ALABAMA

CITY           SKY/WX    TMP DP  RH WIND       PRES   REMARKS
ANNISTON       CLOUDY    33  29  85 NW10      30.25R WCI  25
ALEXANDER CITY CLOUDY    40  36  83 NW17G25   30.16S WCI  32
AUBURN         CLOUDY    43  37  81 NW16G23   30.14R
$$

ALZ051>064-052100-
SOUTHWEST ALABAMA

CITY           SKY/WX    TMP DP  RH WIND       PRES   REMARKS
MOBILE         CLOUDY    43  36  76 N23G31    30.20
BROOKLEY FIELD CLOUDY    47  38  71 N26G33    30.19F
EVERGREEN      CLOUDY    41  37  86 N13G22    30.20S
$$

ALZ049-050-065>069-052100-
SOUTHEAST ALABAMA

CITY           SKY/WX    TMP DP  RH WIND       PRES   REMARKS
DOTHAN         CLOUDY    54  52  94 NW13      30.10S
OZARK          PTSUNNY   56  48  73 NW12      30.08R
TROY           CLOUDY    45  39  79 NW15      30.17R
EUFAULA        PTSUNNY   61  48  63 NW8G16    30.07S
$$


USA.gov is the U.S. government's official web portal to all federal, state and local government web resources and services.